"Pseudo-MPEC" for P22oG6W

Created 2026 Jul 28 21:35:11 UT using Find_Orb

Click here for an explanation of pseudo-MPECs

 
 Astrometry: 
     P22oG6W*0C2026 07 26.54268123 47 31.590-16 30 26.24   ~7QFZ 21.12wXNEOCPF52
     P22oG6W 0C2026 07 26.56586123 47 34.648-16 30 43.74   ~7QFZ 20.96wXNEOCPF52
     P22oG6W 0C2026 07 26.57735923 47 36.169-16 30 52.30   ~7QFZ 21.01wXNEOCPF52
     P22oG6W 0C2026 07 27.60639623 49 58.261-16 43 57.83   ~7RL5 20.69GVNEOCPF52
     P22oG6W 0C2026 07 27.60720323 49 58.372-16 43 58.47   ~7RL5 20.85GVNEOCPF52

Station data:
(F52) Pan-STARRS 2, Haleakala  (N20.707382 W156.255910)  US/Hawaii.
   Observers J. Herman, T. Lowe, P. Minguez, A. Schultz, I. Smith. Measurers
   K. Chambers, T. de Boer, J. Fairlamb, H. Gao, M. Huber, C.-C. Lin, E.
   Magnier, Y. Ramanjooloo, R. Wainscoat, R. Weryk. 1.8-m Ritchey-Chrétien +
   CCD.

Orbital elements:  P22oG6W
   Perihelion 2026 Oct 7.553781 +/- 42.5 TT = 13:17:26.6 (JD 2461321.053781)
Epoch 2026 Jul 27.0 TT = JDT 2461248.5   Earth MOID: 0.3848      AutoNEOCP
M 342.466331438 +/- 11              (J2000 ecliptic)
n   0.241664436 +/- 0.136           Peri.  261.813514 +/- 42
a   2.552667325 +/- 0.959           Node   112.689205 +/- 3.8
e   0.48895117 +/- 0.178            Incl.   12.115703 +/- 2.2
P   4.07841                H 19.79  G  0.15   U 11.4  SR
q 1.304537629 +/- 0.232    Q 3.800797022 +/- 35.3
From 5 observations 2026 July 26-27 (25.5 hr); mean residual 0".04
Residuals in arcseconds: 
260726 F52  .08+  .02-    260726 F52  .03-  .06+    260727 F52  .03+  .01-    
260726 F52  .04-  .03-    260727 F52  .03-  .01+    

Ephemerides (geocentric):
Date (UTC) HH   RA             Dec           delta  r     elong  mag " sig PA
---- --------  ------------   ------------  ------ ------ -----  --- --------
2026 07 28 22  23 53 00.413   -17 01 05.45  .60739 1.4926 132.2 20.9 62.9  70
2026 07 28 23  23 53 06.216   -17 01 39.06  .60707 1.4924 132.2 20.9 66.1  70
2026 07 29 00  23 53 12.020   -17 02 12.72  .60674 1.4922 132.2 20.9 69.3  70
2026 07 29 01  23 53 17.825   -17 02 46.41  .60642 1.4920 132.2 20.9 72.7  71
2026 07 29 02  23 53 23.631   -17 03 20.15  .60610 1.4918 132.2 20.9 76.1  71
2026 07 29 03  23 53 29.437   -17 03 53.93  .60577 1.4916 132.2 20.9 79.6  71
2026 07 29 04  23 53 35.245   -17 04 27.74  .60545 1.4914 132.3 20.9 83.1  71
2026 07 29 05  23 53 41.053   -17 05 01.60  .60513 1.4912 132.3 20.9 86.8  71
2026 07 29 06  23 53 46.863   -17 05 35.50  .60480 1.4910 132.3 20.9 90.5  71
2026 07 29 07  23 53 52.673   -17 06 09.45  .60448 1.4908 132.3 20.9 94.3  71
2026 07 29 08  23 53 58.485   -17 06 43.43  .60416 1.4906 132.3 20.9 98.1  71
2026 07 29 09  23 54 04.297   -17 07 17.45  .60383 1.4904 132.3 20.9  102  71
2026 07 29 10  23 54 10.110   -17 07 51.51  .60351 1.4902 132.4 20.9  106  71
2026 07 29 11  23 54 15.924   -17 08 25.62  .60319 1.4900 132.4 20.9  110  71
2026 07 29 12  23 54 21.739   -17 08 59.76  .60287 1.4898 132.4 20.9  114  71
2026 07 29 13  23 54 27.555   -17 09 33.95  .60255 1.4896 132.4 20.9  119  71
2026 07 29 14  23 54 33.372   -17 10 08.18  .60223 1.4894 132.4 20.9  123  71
2026 07 29 15  23 54 39.190   -17 10 42.45  .60190 1.4892 132.4 20.9  127  71
2026 07 29 16  23 54 45.009   -17 11 16.76  .60158 1.4890 132.5 20.9  132  71
2026 07 29 17  23 54 50.829   -17 11 51.11  .60126 1.4888 132.5 20.9  136  71
2026 07 29 18  23 54 56.649   -17 12 25.50  .60094 1.4886 132.5 20.9  141  71
2026 07 29 19  23 55 02.471   -17 12 59.93  .60062 1.4884 132.5 20.9  146  71
2026 07 29 20  23 55 08.293   -17 13 34.40  .60030 1.4882 132.5 20.9  150  71
2026 07 29 21  23 55 14.117   -17 14 08.91  .59998 1.4880 132.5 20.9  155  71
2026 07 29 22  23 55 19.941   -17 14 43.47  .59967 1.4878 132.6 20.8  160  71
2026 07 29 23  23 55 25.766   -17 15 18.06  .59935 1.4876 132.6 20.8  165  71
2026 07 30 00  23 55 31.593   -17 15 52.70  .59903 1.4874 132.6 20.8  170  72
2026 07 30 01  23 55 37.420   -17 16 27.38  .59871 1.4872 132.6 20.8  175  72
2026 07 30 02  23 55 43.248   -17 17 02.09  .59839 1.4870 132.6 20.8  181  72
2026 07 30 03  23 55 49.077   -17 17 36.85  .59807 1.4868 132.6 20.8  186  72
2026 07 30 04  23 55 54.906   -17 18 11.65  .59776 1.4866 132.6 20.8  191  72
2026 07 30 05  23 56 00.737   -17 18 46.49  .59744 1.4864 132.7 20.8  197  72
2026 07 30 06  23 56 06.569   -17 19 21.37  .59712 1.4863 132.7 20.8  202  72
2026 07 30 07  23 56 12.401   -17 19 56.29  .59680 1.4861 132.7 20.8  208  72
2026 07 30 08  23 56 18.235   -17 20 31.26  .59649 1.4859 132.7 20.8  214  72
2026 07 30 09  23 56 24.069   -17 21 06.26  .59617 1.4857 132.7 20.8  220  72
2026 07 30 10  23 56 29.905   -17 21 41.30  .59585 1.4855 132.7 20.8  225  72
2026 07 30 11  23 56 35.741   -17 22 16.39  .59554 1.4853 132.8 20.8  231  72
2026 07 30 12  23 56 41.578   -17 22 51.52  .59522 1.4851 132.8 20.8  237  72
2026 07 30 13  23 56 47.416   -17 23 26.68  .59491 1.4849 132.8 20.8  244  72
2026 07 30 14  23 56 53.255   -17 24 01.89  .59459 1.4847 132.8 20.8  250  72
2026 07 30 15  23 56 59.095   -17 24 37.14  .59428 1.4845 132.8 20.8  256  72
2026 07 30 16  23 57 04.935   -17 25 12.43  .59396 1.4843 132.8 20.8  262  72
2026 07 30 17  23 57 10.777   -17 25 47.75  .59365 1.4841 132.9 20.8  269  72
2026 07 30 18  23 57 16.619   -17 26 23.12  .59333 1.4839 132.9 20.8  275  72
2026 07 30 19  23 57 22.463   -17 26 58.54  .59302 1.4837 132.9 20.8  282  72
2026 07 30 20  23 57 28.307   -17 27 33.99  .59271 1.4835 132.9 20.8  288  72
2026 07 30 21  23 57 34.152   -17 28 09.48  .59239 1.4833 132.9 20.8  295  72